Pope Field Airport, NC

8:48 PM EST on February 21, 2018 (GMT -0500)
Pope Field Airport

Weather History for KPOB - July, 2013

Change the Weather History Date:

Tuesday, July 23, 2013

  Actual Average Record
Temperature  
Mean Temperature 82 °F -  
Max Temperature 90 °F 90 °F 100 °F (1991)
Min Temperature 75 °F 73 °F 63 °F (2007)
Cooling Degree Days 18    
Growing Degree Days 32 (Base 50)    
Moisture  
Dew Point 72 °F    
Average Humidity 74    
Maximum Humidity 91    
Minimum Humidity 53    
Precipitation  
Precipitation 0.00 in - - ()
Sea Level Pressure  
Sea Level Pressure 29.82 in    
Wind  
Wind Speed 10 mph (WSW)    
Max Wind Speed 14 mph    
Max Gust Speed -    
Visibility 10 miles    
Events      
Averages and records for this station are not official NWS values.
T = Trace of Precipitation, MM = Missing Value Source: NWS Daily Summary

Daily Weather History Graph

Daily Weather History Graph

Search for Another Location

Airport or City:

Trip Planner

Search our weather history database for the weather conditions in past years. The results will help you decide how hot, cold, wet, or windy it might be!

Date:

Astronomy

Jul. 23, 2013 Rise Set
Actual Time 6:18 AM EDT 8:26 PM EDT
Civil Twilight 5:50 AM EDT 8:54 PM EDT
Nautical Twilight 5:15 AM EDT 9:29 PM EDT
Astronomical Twilight 4:37 AM EDT 10:06 PM EDT
Moon 8:59 PM EDT (7/23) 7:20 AM EDT (7/23)
Length of Visible Light 15h 04m
Length of Day
14h 07m
Full, 99% of the Moon is Illuminated
Jul 23
Full
Jul 29
Last Quarter
Aug 6
New
Aug 14
First Quarter
Aug 20
Full

Hourly Weather History & Observations

Time (EDT) Temp. Heat Index Dew Point Humidity Pressure Visibility Wind Dir Wind Speed Gust Speed Precip Events Conditions
12:58 AM 78.3 °F - 72.1 °F 81% 29.86 in 10.0 mi SW 9.2 mph - N/A   Clear
1:58 AM 78.1 °F - 72.0 °F 81% 29.86 in 10.0 mi SW 9.2 mph - N/A   Clear
2:58 AM 77.2 °F - 72.1 °F 84% 29.84 in 10.0 mi SW 9.2 mph - N/A   Clear
3:58 AM 76.3 °F - 72.1 °F 87% 29.83 in 10.0 mi SW 12.7 mph - N/A   Clear
4:43 AM 75.2 °F - 71.6 °F 89% 29.82 in 10.0 mi WSW 12.7 mph - N/A   Mostly Cloudy
4:58 AM 75.7 °F - 72.3 °F 89% 29.83 in 10.0 mi WSW 13.8 mph - N/A   Mostly Cloudy
5:08 AM 75.2 °F - 71.6 °F 89% 29.83 in 10.0 mi WSW 12.7 mph - N/A   Scattered Clouds
5:58 AM 75.2 °F - 71.6 °F 89% 29.84 in 10.0 mi WSW 10.4 mph - N/A   Mostly Cloudy
6:38 AM 75.2 °F - 71.6 °F 89% 29.84 in 10.0 mi WSW 10.4 mph - N/A   Scattered Clouds
6:58 AM 75.2 °F - 72.3 °F 91% 29.85 in 10.0 mi WSW 10.4 mph - N/A   Partly Cloudy
7:13 AM 75.2 °F - 71.6 °F 89% 29.85 in 10.0 mi WSW 10.4 mph - N/A   Mostly Cloudy
7:58 AM 75.9 °F - 72.5 °F 89% 29.86 in 10.0 mi WSW 11.5 mph - N/A   Mostly Cloudy
8:58 AM 78.6 °F - 72.5 °F 81% 29.86 in 10.0 mi WSW 11.5 mph - N/A   Overcast
9:18 AM 78.8 °F - 73.4 °F 83% 29.85 in 10.0 mi West 12.7 mph - N/A   Mostly Cloudy
9:33 AM 80.6 °F 84.6 °F 71.6 °F 74% 29.84 in 10.0 mi West 11.5 mph - N/A   Scattered Clouds
9:58 AM 81.9 °F 86.8 °F 72.3 °F 73% 29.83 in 10.0 mi West 11.5 mph - N/A   Partly Cloudy
10:58 AM 84.2 °F 89.9 °F 72.1 °F 67% 29.83 in 10.0 mi West 8.1 mph - N/A   Clear
11:58 AM 86.9 °F 92.9 °F 71.4 °F 60% 29.82 in 10.0 mi West 8.1 mph - N/A   Clear
12:58 PM 87.6 °F 93.1 °F 70.9 °F 57% 29.82 in 10.0 mi West 8.1 mph - N/A   Partly Cloudy
1:58 PM 89.2 °F 95.4 °F 71.1 °F 55% 29.81 in 10.0 mi Variable 2.3 mph - N/A   Partly Cloudy
2:58 PM 90.5 °F 97.0 °F 71.1 °F 53% 29.79 in 10.0 mi West 13.8 mph - N/A   Partly Cloudy
3:58 PM 89.6 °F 96.6 °F 72.0 °F 56% 29.76 in 10.0 mi NW 12.7 mph - N/A   Scattered Clouds
4:58 PM 89.8 °F 95.6 °F 70.7 °F 53% 29.75 in 10.0 mi WNW 11.5 mph - N/A   Scattered Clouds
5:58 PM 88.9 °F 94.2 °F 70.2 °F 54% 29.75 in 10.0 mi West 9.2 mph - N/A   Clear
6:58 PM 88.5 °F 94.0 °F 70.5 °F 55% 29.75 in 10.0 mi NW 9.2 mph - N/A   Clear
7:58 PM 86.5 °F 91.8 °F 70.9 °F 59% 29.76 in 10.0 mi West 5.8 mph - N/A   Clear
8:58 PM 82.2 °F 86.9 °F 71.4 °F 70% 29.76 in 10.0 mi WSW 6.9 mph - N/A   Clear
9:58 PM 81.3 °F 85.6 °F 71.4 °F 72% 29.79 in 10.0 mi West 8.1 mph - N/A   Clear
10:58 PM 82.0 °F 86.5 °F 71.2 °F 70% 29.81 in 10.0 mi West 6.9 mph - N/A   Clear
11:58 PM 80.4 °F 84.1 °F 71.2 °F 73% 29.79 in 10.0 mi WSW 6.9 mph - N/A   Clear